Sauze dOulx, Italy 16 day weather forecast

Slopes altitude range 1390 m - 2825m

Number of lifts: 72 Pistes: 400km

In some cases the lift and piste totals shown are for the ski domain (e.g. Three Valleys) rather than individual resort (e.g. Courchevel)

Overview

The 16 day weather forecast is fully updated 4 times every day.

    • Mon 22 APR 2019
    • Mon 22
    • 1C 7C
    • Tue 23 APR 2019
    • Tue 23
    • 1C 4C
    • Wed 24 APR 2019
    • Wed 24
    • 1C 2C
    • Thu 25 APR 2019
    • Thu 25
    • 0C 3C
    • Fri 26 APR 2019
    • Fri 26
    • 1C 5C
    • Sat 27 APR 2019
    • Sat 27
    • -1C 9C
    • Sun 28 APR 2019
    • Sun 28
    • 4C 14C
    • Mon 29 APR 2019
    • Mon 29
    • 6C 15C
    • Tue 30 APR 2019
    • Tue 30
    • 5C 8C
    • Wed 01 MAY 2019
    • Wed 01
    • 1C 10C
    • Thu 02 MAY 2019
    • Thu 02
    • 0C 9C
    • Fri 03 MAY 2019
    • Fri 03
    • 0C 6C
    • Sat 04 MAY 2019
    • Sat 04
    • -1C 5C
    • Sun 05 MAY 2019
    • Sun 05
    • 2C 4C
    • Mon 06 MAY 2019
    • Mon 06
    • 1C 6C
    • Tue 07 MAY 2019
    • Tue 07
    • -2C 4C

Date:

Time Type 0°C level Temp Chill Snow Cloud Speed Gust Dir Press
3:00 2160m 1°C 1_4 1cm 100% 4mph 6mph 1013mB
6:00 2050m -1°C -1_5 1cm 100% 5mph 8mph 1012mB
9:00 2219m 1°C 1_7 0cm 98% 7mph 10mph 1008mB
12:00 2419m 7°C 7_8 0cm 57% 8mph 11mph 1006mB
15:00 2400m 8°C 8_8 0cm 52% 8mph 11mph 1005mB
18:00 2121m 8°C 8_5 1cm 76% 5mph 8mph 1005mB
21:00 2110m 1°C 1_6 1cm 100% 6mph 10mph 1005mB
0:00 1981m 1°C 1_5 1cm 100% 5mph 9mph 1004mB
3:00 1978m 0°C 0_3 1cm 100% 3mph 6mph 1003mB
6:00 2028m 0°C 0_4 1cm 100% 4mph 7mph 1002mB
9:00 2107m 1°C 1_5 1cm 100% 5mph 7mph 1002mB
12:00 2216m 4°C 4_6 0cm 100% 6mph 8mph 1002mB
15:00 2203m 3°C 3_5 0cm 100% 5mph 6mph 1001mB
18:00 2158m 3°C 3_5 0cm 100% 5mph 7mph 1003mB
21:00 2185m 1°C 1_3 0cm 100% 3mph 4mph 1006mB
0:00 2185m 1°C 1_0 0cm 100% 0mph 1mph 1007mB
3:00 1732m -1°C -1_1 0cm 86% 1mph 1mph 1007mB
6:00 2053m -1°C -1_4 1cm 93% 4mph 5mph 1008mB
9:00 2103m 1°C 1_6 3cm 97% 6mph 9mph 1010mB
12:00 2106m 2°C 2_5 6cm 99% 5mph 7mph 1011mB
15:00 2190m 2°C 2_2 0cm 100% 2mph 3mph 1012mB
18:00 1986m 2°C 2_3 0cm 81% 3mph 3mph 1013mB
21:00 1369m -3°C -3_3 0cm 47% 3mph 4mph 1017mB
0:00 1304m -4°C -4_1 0cm 73% 1mph 2mph 1018mB
3:00 1374m -4°C -4_1 0cm 100% 1mph 2mph 1018mB
6:00 1840m -4°C -4_4 0cm 100% 4mph 6mph 1018mB
9:00 1965m 0°C 0_6 1cm 100% 6mph 7mph 1017mB
12:00 2112m 3°C 3_5 1cm 100% 5mph 6mph 1016mB
15:00 2234m 4°C 4_5 0cm 100% 5mph 6mph 1016mB
18:00 2240m 4°C 4_3 0cm 87% 3mph 4mph 1016mB
21:00 1913m 0°C 0_1 0cm 53% 1mph 2mph 1018mB
0:00 1864m -1°C -1_2 0cm 58% 2mph 3mph 1017mB
3:00 1592m -2°C -2_2 0cm 20% 2mph 3mph 1017mB
6:00 2005m -2°C -2_6 1cm 56% 6mph 9mph 1017mB
9:00 2192m 1°C 1_7 1cm 97% 7mph 11mph 1018mB
12:00 2269m 5°C 5_9 1cm 56% 9mph 14mph 1017mB
15:00 2247m 5°C 5_9 0cm 4% 9mph 14mph 1017mB
18:00 2076m 5°C 5_8 0cm 8% 8mph 12mph 1019mB
21:00 1603m -2°C -2_10 0cm 7% 10mph 15mph 1023mB
0:00 1570m -2°C -2_9 0cm 5% 9mph 14mph 1024mB
3:00 1404m -3°C -3_9 0cm 4% 9mph 13mph 1025mB
6:00 1733m -3°C -3_8 0cm 27% 8mph 13mph 1026mB
9:00 2500m -1°C -1_4 0cm 93% 4mph 7mph 1025mB
12:00 2669m 9°C 9_5 0cm 60% 5mph 7mph 1024mB
15:00 2750m 10°C 10_5 0cm 5% 5mph 7mph 1023mB
18:00 2863m 10°C 10_5 0cm 23% 5mph 6mph 1024mB
21:00 2736m 1°C 1_7 0cm 82% 7mph 7mph 1026mB
0:00 2774m 1°C 1_7 0cm 83% 7mph 7mph 1026mB
3:00 2723m 1°C 1_6 0cm 82% 6mph 7mph 1026mB
6:00 3033m 1°C 1_5 0cm 84% 5mph 6mph 1025mB
9:00 3072m 4°C 4_1 0cm 81% 1mph 4mph 1024mB
12:00 2979m 14°C 14_1 0cm 71% 1mph 4mph 1023mB
15:00 3040m 14°C 14_1 0cm 36% 1mph 4mph 1021mB
18:00 3079m 14°C 14_3 0cm 19% 3mph 4mph 1021mB
21:00 3142m 4°C 4_6 0cm 0% 6mph 7mph 1022mB
0:00 3034m 3°C 3_6 0cm 20% 6mph 7mph 1022mB
3:00 3056m 2°C 2_6 0cm 64% 6mph 7mph 1020mB
6:00 3156m 2°C 2_6 0cm 71% 6mph 8mph 1019mB
9:00 3076m 6°C 6_4 0cm 89% 4mph 8mph 1017mB
12:00 3129m 15°C 15_5 0cm 84% 5mph 13mph 1014mB
15:00 3197m 15°C 15_6 0cm 7% 6mph 16mph 1011mB
18:00 3080m 15°C 15_6 0cm 5% 6mph 7mph 1010mB
21:00 2913m 6°C 6_8 0cm 2% 8mph 11mph 1011mB
0:00 2798m 5°C 5_8 0cm 2% 8mph 13mph 1010mB
3:00 2602m 5°C 5_9 0cm 23% 9mph 15mph 1008mB
6:00 2443m 4°C 4_10 0cm 22% 10mph 20mph 1008mB
9:00 2392m 5°C 5_10 0cm 9% 10mph 16mph 1007mB
12:00 2471m 8°C 8_10 0cm 5% 10mph 13mph 1006mB
15:00 2446m 8°C 8_10 0cm 1% 10mph 12mph 1006mB
18:00 2228m 8°C 8_9 0cm 1% 9mph 13mph 1007mB
21:00 1837m -1°C -1_8 0cm 0% 8mph 13mph 1010mB
0:00 1723m -1°C -1_7 0cm 1% 7mph 10mph 1011mB
3:00 1581m -2°C -2_5 0cm 0% 5mph 5mph 1012mB
6:00 1900m -2°C -2_2 0cm 0% 2mph 3mph 1012mB
9:00 2191m 1°C 1_2 0cm 1% 2mph 4mph 1011mB
12:00 2396m 10°C 10_2 0cm 7% 2mph 5mph 1010mB
15:00 2470m 10°C 10_1 0cm 28% 1mph 4mph 1009mB
18:00 2355m 10°C 10_1 0cm 15% 1mph 2mph 1010mB
21:00 2157m 0°C 0_4 0cm 0% 4mph 5mph 1012mB
0:00 1980m 0°C 0_3 0cm 6% 3mph 3mph 1011mB
Afternoon 0.0572917mm 0.6875 2338m 9°C 9_1 0cm 57% 1mph 4mph 1008mB
Morning 0.0729167mm 0.75 2334m 2°C 2_3 6cm 59% 3mph 4mph 1011mB
Afternoon 0.03125mm 0.125 2330m 6°C 6_8 1cm 45% 8mph 9mph 1008mB
Morning 0.130208mm 0.25 2213m 2°C 2_6 2cm 96% 6mph 9mph 1008mB
Afternoon 0.15625mm 0.0625 2211m 5°C 5_9 1cm 90% 9mph 11mph 1004mB
Morning 0.25mm 0.0625 2600m 2°C 2_5 0cm 90% 5mph 8mph 1004mB
Afternoon 1.78646mm 0.125 2264m 4°C 4_2 14cm 95% 2mph 4mph 1001mB
Morning 1.09896mm 0.8125 2211m 2°C 2_9 9cm 94% 9mph 15mph 1003mB
Afternoon 0.03125mm 0 2367m 6°C 6_9 1cm 94% 9mph 12mph 1005mB
Morning 0.0260417mm 0 1833m 0°C 0_10 1cm 93% 10mph 17mph 1010mB
Afternoon 0.015625mm 0 1974m 4°C 4_9 1cm 29% 9mph 10mph 1013mB
Morning 0.00520833mm 0 1147m -5°C -5_8 0cm 20% 8mph 12mph 1021mB

16 day outlook at a glance

Forecast issued: 22/04/2019 09:03:26

Chat

Your comments and questions. In a resort? Let us know what it's like!


Characters left 250

For terms and conditions see Readers Comments on the Cookie and privacy policy page.